Location: Carrières
(48.9495°N, 2.0407°E)
Time: 19:55:05
(UTC+00:00)

Altair - Pass Details

Date: 29 April 2024
Orbit: 1502 x 1682 km, 47.2° (Epoch: 21 May)

Event Time Altitude Azimuth Distance (km) Brightness Sun altitude
Rises 21:55:03 0° 288° (WNW) 4,897 10.9 -21.4°
Reaches altitude 10° 21:58:22 10° 283° (WNW) 3,888 10.2 -21.7°
Maximum altitude 22:07:39 48° 214° (SW) 2,009 7.9 -22.4°
Enters shadow 22:11:19 34° 166° (SSE) 2,381 7.9 -22.6°
